TimeEDT,TemperatureF,Dew PointF,Humidity,Sea Level PressureIn,VisibilityMPH,Wind Direction,Wind SpeedMPH,Gust SpeedMPH,PrecipitationIn,Events,Conditions,WindDirDegrees,DateUTC
12:53 AM,73.0,57.9,59,29.96,10.0,South,8.1,-,N/A,,Clear,190,2013-05-29 04:53:00
1:53 AM,73.0,57.9,59,29.96,10.0,South,10.4,-,N/A,,Clear,190,2013-05-29 05:53:00
2:53 AM,72.0,57.0,59,29.96,10.0,SSW,8.1,-,N/A,,Partly Cloudy,210,2013-05-29 06:53:00
3:53 AM,72.0,57.0,59,29.97,10.0,SSW,8.1,-,N/A,,Mostly Cloudy,200,2013-05-29 07:53:00
4:53 AM,72.0,55.9,57,29.98,10.0,SSW,9.2,-,N/A,,Mostly Cloudy,210,2013-05-29 08:53:00
5:53 AM,72.0,55.9,57,30.00,10.0,SSW,10.4,-,N/A,,Overcast,210,2013-05-29 09:53:00
6:53 AM,72.0,55.0,55,30.02,10.0,SW,11.5,18.4,N/A,,Mostly Cloudy,230,2013-05-29 10:53:00
7:53 AM,72.0,57.0,59,30.03,10.0,SW,9.2,-,N/A,,Clear,230,2013-05-29 11:53:00
8:53 AM,73.0,57.9,59,30.03,10.0,SSW,11.5,17.3,N/A,,Clear,200,2013-05-29 12:53:00
9:53 AM,75.0,59.0,57,30.03,10.0,SSW,12.7,19.6,N/A,,Clear,200,2013-05-29 13:53:00
10:53 AM,79.0,61.0,54,30.04,10.0,West,9.2,18.4,N/A,,Scattered Clouds,260,2013-05-29 14:53:00
11:53 AM,79.0,61.0,54,30.04,10.0,WSW,10.4,21.9,N/A,,Clear,250,2013-05-29 15:53:00
12:53 PM,82.0,61.0,49,30.03,10.0,SSW,11.5,23.0,N/A,,Clear,210,2013-05-29 16:53:00
1:53 PM,84.0,60.1,44,30.02,10.0,SSW,17.3,23.0,N/A,,Partly Cloudy,210,2013-05-29 17:53:00
2:53 PM,84.0,59.0,43,30.01,10.0,SSW,11.5,-,N/A,,Scattered Clouds,200,2013-05-29 18:53:00
3:53 PM,86.0,57.9,38,30.01,10.0,SSW,13.8,26.5,N/A,,Clear,210,2013-05-29 19:53:00
4:53 PM,87.1,57.9,37,29.98,10.0,SSW,13.8,19.6,N/A,,Partly Cloudy,210,2013-05-29 20:53:00
5:53 PM,84.0,59.0,43,29.99,10.0,SSW,12.7,-,N/A,,Partly Cloudy,210,2013-05-29 21:53:00
6:53 PM,82.9,63.0,51,29.97,10.0,South,5.8,-,N/A,,Clear,190,2013-05-29 22:53:00
7:53 PM,81.0,63.0,54,29.96,10.0,South,5.8,-,N/A,,Partly Cloudy,190,2013-05-29 23:53:00
8:53 PM,79.0,63.0,58,29.96,10.0,SSE,5.8,-,N/A,,Clear,160,2013-05-30 00:53:00
9:53 PM,75.0,63.0,66,29.97,10.0,South,4.6,-,N/A,,Clear,170,2013-05-30 01:53:00
10:53 PM,73.9,64.0,71,29.98,10.0,SSE,5.8,-,N/A,,Clear,150,2013-05-30 02:53:00
11:53 PM,71.1,64.0,78,30.00,10.0,South,3.5,-,N/A,,Clear,170,2013-05-30 03:53:00